Location: Shepherdstown, WV
(39.4326°N, 77.8042°W)
Time: 06:25:04
(UTC-04:00)

SR - Pass Details

Date: 06 August 2021
Orbit: 581 x 874 km, 66.7° (Epoch: 24 September)

Event Time Altitude Azimuth Distance (km) Brightness Sun altitude
Rises 16:01:50 0° 316° (NW) 3,003 ? 47.5°
Reaches altitude 10° 16:04:44 10° 299° (WNW) 2,033 ? 47.0°
Maximum altitude 16:07:56 19° 254° (WSW) 1,473 ? 46.4°
Drops below altitude 10° 16:11:00 10° 208° (SSW) 1,935 ? 45.8°
Sets 16:13:42 0° 190° (S) 2,805 ? 45.3°
